Location: Cz?stochówka
(50.8142°N, 19.0915°E)
Time: 15:28:39
(UTC+00:00)

Nadezhda 3 Rocket - Pass Details

Date: 13 January 2026
Orbit: 956 x 997 km, 82.9° (Epoch: 18 February)

Event Time Altitude Azimuth Distance (km) Brightness Sun altitude
Rises 05:04:50 0° 347° (NNW) 3,669 6.7 -14.6°
Reaches altitude 10° 05:07:21 10° 345° (NNW) 2,723 6.0 -14.2°
Maximum altitude 05:13:29 61° 266° (W) 1,099 4.0 -13.3°
Drops below altitude 10° 05:19:38 10° 188° (S) 2,733 6.5 -12.3°
Sets 05:22:10 0° 185° (S) 3,683 7.2 -12.0°
